Regional Weather Roundup
Issued by NWS Upton, NY

Current Version | Previous Version | Graphics & Text | Print | Product List | Glossary Off
Versions: 1 2 3 4 5 6 7 8 9 10 11 12 13 14 15 16 17 18 19 20 21 22 23 24 25 26 27

000
ASUS41 KOKX 230605
RWROKX

REGIONAL WEATHER ROUNDUP
NATIONAL WEATHER SERVICE NEW YORK NY
200 AM EDT SAT JUL 23 2016

NOTE: "FAIR" INDICATES FEW OR NO CLOUDS BELOW 12,000 FEET WITH NO
SIGNIFICANT WEATHER AND/OR OBSTRUCTIONS TO VISIBILITY.

NYZ071-072-176-178-NJZ106-104-230700-
NEW YORK CITY METRO AREA

CITY           SKY/WX    TMP DP  RH WIND       PRES   REMARKS
Central Park   CLEAR     83  67  58 W6        29.85S
LaGuardia APRT PTCLDY    86  68  54 W6        29.81R
Kennedy INTL   PTCLDY    82  74  76 W9        29.82F
Newark/Liberty PTCLDY    83  68  60 W14       29.82S
BRNX BOT. GARD   N/A     82  66  57 NW2       29.84R
Wall St Helipt CLEAR     82  70  65 CALM      29.83S
Teterboro      CLEAR     82  66  58 W7        29.81R
$$

NYZ177-179-078>081-230700-
LONG ISLAND NEW YORK

CITY           SKY/WX    TMP DP  RH WIND       PRES   REMARKS
FARMINGDALE    CLEAR     80  71  74 W9        29.82S
ISLIP          CLEAR     78  70  76 SW9       29.80S
SHIRLEY        PTCLDY    80  70  71 SW8       29.81F
RIVERHEAD      NOT AVBL
WESTHAMPTON    PTCLDY    77  70  79 SW10      29.82S
SOUTHAMPTON      N/A     75  72  88 SW7       29.76F
BRIDGEHAMPTON    N/A     75  70  83 CALM      29.79S
EAST HAMPTON   FAIR      76  70  81 SW8       29.79S
MONTAUK POINT    N/A     75  71  87 SW8       29.80S
$$

NYZ052-065-067-230700-
HUDSON VALLEY

CITY           SKY/WX    TMP DP  RH WIND       PRES   REMARKS
WHITE PLAINS   CLEAR     80  67  64 W3        29.82S
NEWBURGH       NOT AVBL
MONTGOMERY     CLOUDY    72  68  87 CALM      29.84R
POUGHKEEPSIE   CLEAR     74  71  91 CALM      29.81S
ALBANY         PTCLDY    73  65  75 W3        29.79R
$$

NJZ001-105-106-008-010-013-015-019>022-104-230700-
NEW JERSEY

CITY           SKY/WX    TMP DP  RH WIND       PRES   REMARKS
NEWARK/LIBERTY PTCLDY    83  68  60 W14       29.82S
TETERBORO      CLEAR     82  66  58 W7        29.81R
CALDWELL       CLEAR     80  68  66 CALM      29.83R
MORRISTOWN     CLEAR     75  63  64 CALM      29.84S
SOMERVILLE     CLEAR     72  69  90 CALM      29.83S
SUSSEX         CLEAR     69  67  93 CALM      29.86R
ANDOVER          N/A     70  67  90 CALM      29.88R
TRENTON        CLEAR     80  68  66 W5        29.85S
MILLVILLE      CLEAR     80  70  71 W8        29.89S
ATLANTIC CITY  CLEAR     81  73  76 W8        29.87F
WRIGHTSTOWN    CLEAR     77  70  78 W6        29.83S
TOMS RIVER     CLEAR     79  70  74 W10       29.86S
BELMAR         CLEAR     79  69  71 SW9       29.86S
$$

PAZ047>061-062-071-230700-
EASTERN PENNSYLVANIA

CITY           SKY/WX    TMP DP  RH WIND       PRES   REMARKS
PHILADELPHIA   CLEAR     81  73  76 SW12      29.87S
ALLENTOWN      PTCLDY    77  66  68 CALM      29.88R
SCRANTON       CLEAR     75  64  68 S3        29.89S
$$

CTZ002-004>006-009-010-012-RIZ004-006-007-MAZ004-011-015-230700-
SOUTHERN NEW ENGLAND
 IN CT

CITY           SKY/WX    TMP DP  RH WIND       PRES   REMARKS
BRADLEY INTL   CLEAR     74  69  85 W5        29.77S
HARTFORD       PTCLDY    75  71  87 S3        29.78S
DANBURY        CLEAR     73  67  81 SW3       29.84R
WTRBRY/OXFORD    N/A     73  66  78 CALM      29.85S
BRIDGEPORT     CLEAR     78  70  76 SW3       29.80R
MERIDEN        PTCLDY    76  73  91 CALM      29.79F FOG
NEW HAVEN      CLEAR     75  70  84 CALM      29.79F
CHESTER        FAIR      79  72  78 SW6       29.81S
GROTON         PTCLDY    80  70  71 W5        29.78S
WILLIMANTIC    NOT AVBL

 IN RI

CITY           SKY/WX    TMP DP  RH WIND       PRES   REMARKS
PROVIDENCE     MOCLDY    73  70  90 SW8       29.78S
BLOCK ISLAND   TSTM      74  71  91 SW12      29.81
WESTERLY       PTCLDY    76  69  79 CALM      29.79S

 IN MA

CITY           SKY/WX    TMP DP  RH WIND       PRES   REMARKS
BOSTON         PTCLDY    77  69  76 SW14      29.74F
WORCESTER      CLEAR     72  68  87 W9        29.81F
WESTFIELD      CLEAR     70  67  90 CALM      29.78S
PROVINCETOWN   CLOUDY    72  69  90 W13       29.75S
NANTUCKET      RAIN      71  67  87 W24G32    29.80F FOG
$$

ANZ330-335-338-340-345-350-353-355-230700-
COASTAL MARINE OBSERVATIONS


STATION/POSITION TIME  SKY/WX   TEMP    WIND        PRES    VSBY  WAVE
                                AIR SEA DIR/SP/G                  HT/PER
                 (UTC)          (F)     (DEG/KT/KT) (MB)    (MI)  (FT/S)
NY HARB ENTRANCE 0450            77 72  220/ 14/ 16 1009.3          4/ 6
20S FIRE ISLAND  0450            76 74  230/ 17/ 19 1009.4          6/ 6
GREAT SOUTH BAY  0530            78 79  250/ 14/ 17   N/A
23 SSW MONTAUK P 0450            75 71  230/ 19/ 23 1009.4          6/ 7
15 E BARNEGAT LI 0522               74                N/A           5/ 6
HUDSON CANYON    0450            78 76              1010.8          6/ 6
KINGS POINT      0500            82 71              1009.5
EXECUTION ROCKS  0500            80     250/ 10/ 16   N/A
CENTRAL LI SOUND 0500            77 71  230/ 12/ 16   N/A           2/ 4
EASTERN LI SOUND 0500            72 68  280/  4/  6   N/A
ROBBINS REEF     0500            84     270/ 20/ 25 1008.9
$$


>>>>>>>>>>>>>>>>>>>>>>>>>>>> KEY <<<<<<<<<<<<<<<<<<<<<<<<<<<
>                                                          <
>     SKY/WX - SKY CONDITION/PRESENT WEATHER               <
>     TMP    - TEMPERATURE IN FAHRENHEIT                   <
>     DP     - DEWPOINT IN FAHRENHEIT                      <
>     RH     - RELATIVE HUMIDITY IN PERCENT                <
>     WIND   - DIRECTION AND SPEED IN MPH                  <
>     PRES   - MEAN SEA LEVEL PRESSURE IN INCHES OF HG     <
>     WCI    - WIND CHILL INDEX                            <
>     VSB    - VISIBILITY IN MILES                         <
>     HX     - HEAT INDEX                                  <
>     TC     - TEMPERATURE IN CELSIUS                      <
>     VRB    - VARIABLE WIND DIRECTION                     <
>                                                          <
>>>>>>>>>>>>>>>>>>>>>>>>>>>> KEY <<<<<<<<<<<<<<<<<<<<<<<<<<<






USA.gov is the U.S. government's official web portal to all federal, state and local government web resources and services.